Location: Unspecified
(50.7822°N, 1.1356°W)
Time: 01:21:21
(UTC+01:00)

Cosmos 1674 - Visible Passes

Search period start: 21 July 2018 00:00
Search period end: 31 July 2018 00:00
Orbit: 497 x 520 km, 82.5° (Epoch: 20 July)

Date Brightness Start Highest point End Pass type
(mag) Time Alt. Az. Time Alt. Az. Time Alt. Az.
21 Jul 5.5 04:26:05 10° NNE 04:29:06 22° ENE 04:32:04 10° ESE visible
22 Jul 5.6 04:09:08 10° NNE 04:11:49 18° ENE 04:14:28 10° ESE visible
23 Jul 5.7 03:52:16 10° NNE 03:54:31 15° ENE 03:56:45 10° ESE visible
24 Jul 5.9 03:35:34 10° NE 03:37:12 12° ENE 03:38:49 10° E visible
25 Jul 6.2 03:19:34 10° NE 03:19:52 10° ENE 03:20:09 10° ENE visible
26 Jul 3.0 04:35:07 10° N 04:38:54 71° E 04:42:36 10° SSE visible
27 Jul 3.4 04:17:57 10° N 04:21:40 55° ENE 04:25:20 10° SSE visible
28 Jul 3.9 04:00:50 10° N 04:04:26 43° ENE 04:08:00 10° SSE visible
29 Jul 4.3 03:43:43 10° N 03:47:11 34° ENE 03:50:38 10° SE visible
30 Jul 4.7 03:26:39 10° N 03:29:56 28° ENE 03:33:11 10° SE visible
